Home   Weather   Perth   Past weeks

Flag for United Kingdom Past Weather in Perth, Scotland, United Kingdom — Yesterday and Last 2 Weeks

Now
43 °F

Quite cool.


Feels Like: 41 °F
Forecast: 32 / 54 °F
Wind: 3 mph from West

Location: Strathallan

Current Time: Oct 1, 2016 at 11:24:14 PM

Latest Report: Oct 1, 2016 at 10:00 PM


Visibility: 31 mi

Pressure: 29.93 "Hg

Humidity: 98%

Dew Point: 42 °F

Location of PerthLocation

Past Weather in Perth — Graph

°F

Perth Temperature Yesterday

Maximum temperature yesterday: 55 °F (at 3:00 PM)
Minimum temperature yesterday: 42 °F (at 11:00 PM)
Average temperature yesterday: 49 °F

High & Low Weather Summary for the Past Weeks

 TemperatureHumidityPressure
High64 °F (Sep 28, 6:00 PM)100% (Sep 17, 7:00 AM)30.24 "Hg (Sep 17, 7:00 AM)
Low35 °F (Oct 1, 7:00 AM)52% (Sep 22, 1:00 PM)29.44 "Hg (Sep 29, 12:00 PM)
Average53 °F85%29.91 "Hg
* Reported Sep 16 10:00 PM — Oct 1 10:00 PM, Perth, Weather by CustomWeather, © 2016

Note: Actual official high and low records may vary slightly from our data, if they occured in-between our weather recording intervals... More about our weather records

Advertising

Perth Weather History for the Previous 24 Hours

Scroll right to see more
 ConditionsComfort  
Time TempWeatherWind HumidityBarometerVisibility
10:00 PM
Sat, Oct 1
43 °FQuite cool.3 mph98%29.93 "Hg31 mi
9:00 PM46 °FCool.2 mph95%29.91 "Hg31 mi
8:00 PM48 °FRain showers. Overcast.1 mph90%29.90 "Hg31 mi
7:00 PM50 °FCool.6 mph78%29.87 "Hg31 mi
6:00 PM52 °FCool.2 mph84%29.85 "Hg19 mi
5:00 PM53 °FCool.3 mph79%29.83 "Hg31 mi
4:00 PM53 °FCool.9 mph77%29.81 "Hg28 mi
3:00 PM56 °FCool.6 mph66%29.80 "Hg28 mi
2:00 PM56 °FCool.5 mph64%29.80 "Hg25 mi
1:00 PM54 °FCool.3 mph74%29.80 "Hg28 mi
12:00 PM51 °FCool.2 mph79%29.80 "Hg5 mi
11:00 AM48 °FCool.1 mph94%29.80 "Hg31 mi
10:00 AM41 °FQuite cool.2 mph100%29.79 "Hg12 mi
9:00 AM36 °FDuststorm.No wind100%29.78 "Hg0 mi
8:00 AM35 °FDuststorm.No wind99%29.76 "Hg0 mi
7:00 AM35 °FDuststorm.2 mph99%29.75 "Hg0 mi
6:00 AM35 °FChilly.1 mph99%29.74 "Hg2 mi
5:00 AM36 °FDuststorm.1 mph98%29.73 "Hg1 mi
4:00 AM38 °FChilly.2 mph98%29.73 "Hg5 mi
3:00 AM39 °FChilly.1 mph98%29.73 "Hg1 mi
2:00 AM40 °FChilly.2 mph99%29.73 "Hg25 mi
1:00 AM40 °FQuite cool.1 mph98%29.74 "Hg13 mi
12:00 AM41 °FQuite cool.2 mph98%29.75 "Hg28 mi
11:00 PM
Fri, Sep 30
42 °FQuite cool.2 mph97%29.74 "Hg19 mi
Weather by CustomWeather, © 2016

See weather overviewHow to use our weather pages